Regional Weather Roundup
Issued by NWS

Home | Current Version | Previous Version | Graphics & Text | Print | Product List | Glossary On
Versions: 1 2 3 4 5 6 7 8 9 10 11 12 13 14 15 16 17 18 19 20 21 22 23 24 25 26 27 28 29 30 31 32 33 34 35 36 37 38 39 40 41 42 43 44 45 46 47 48 49 50
000
ASUS43 KFSD 291210
RWRSD

WEATHER ROUNDUP FOR SOUTH DAKOTA
NATIONAL WEATHER SERVICE SIOUX FALLS SD
700 AM CDT FRI MAY 29 2015

NOTE: "FAIR" INDICATES FEW OR NO CLOUDS BELOW 12,000 FEET WITH NO
SIGNIFICANT WEATHER AND/OR OBSTRUCTIONS TO VISIBILITY.


SDZ001>005-009-010-012>017-291300-
NORTHWEST AND NORTH CENTRAL SOUTH DAKOTA

CITY           SKY/WX    TMP DP  RH WIND       PRES   REMARKS
BUFFALO          N/A     46  44  93 N16       30.12R
FAITH            N/A     48  46  93 N21G30    30.09R
MOBRIDGE       CLOUDY    54  54 100 N24G31    30.00R
$$

SDZ012>016-024>037-041>051-057-063-072>074-291300-
SOUTHWEST AND SOUTH CENTRAL SOUTH DAKOTA

CITY           SKY/WX    TMP DP  RH WIND       PRES   REMARKS
RAPID CTY ARPT LGT RAIN  52  50  93 N25G32    30.10R
PIERRE         LGT RAIN  56  54  93 N22G31    29.94R
CUSTER         CLOUDY    49  44  83 NE10      30.13R
ELLSWORTH AFB  LGT RAIN  52  52 100 N23G29    30.10  FOG
PHILIP         LGT RAIN  57  54  89 N20G30    30.02R
PINE RIDGE     CLOUDY    55  52  89 N10       30.06R
SPEARFISH      RAIN      46  46 100 N12G21    30.19R
WINNER         CLOUDY    60  55  83 NW10      29.93R
$$

SDZ004>011-016>023-039-040-291300-
NORTHEAST SOUTH DAKOTA

CITY           SKY/WX    TMP DP  RH WIND       PRES   REMARKS
ABERDEEN       LGT RAIN  59  56  89 N23G31    29.93R
WATERTOWN      CLOUDY    59  57  93 N8        29.88R
BROOKINGS      CLOUDY    61  57  88 CALM      29.88R
SISSETON         N/A     58  58 100 N25       29.90R
$$

SDZ017-020-022-023-036>040-048>070-291300-
SOUTHEAST SOUTH DAKOTA

CITY           SKY/WX    TMP DP  RH WIND       PRES   REMARKS
SIOUX FALLS    CLOUDY    64  63  96 N3        29.85R FOG
HURON            N/A    N/A N/A N/A MISG      29.87R
CHAMBERLAIN    CLOUDY    59  58  94 NW13      29.89R
MITCHELL       CLOUDY    62  60  93 CALM      29.86R
YANKTON        CLOUDY    63  57  82 W9        29.85R
$$

ABBREVIATIONS USED IN REMARKS
   TC - TEMPERATURE IN CELSIUS
  WCI - WIND CHILL INDEX
   HX - HEAT INDEX
  VSB - VISIBILITY



USA.gov is the U.S. government's official web portal to all federal, state and local government web resources and services.